EW0920 Weather Reports


time (UTC)temp
F
wind
direction
speed
knots
gust
knots
rain 1hr
in
rain 24hr
in
rain mn
in
humidity
%
barometer
mb
20260904073836 73 325 0.0 0.0 0.00 0.00 0.00 99 1017.2
20260904073332 73 325 0.0 0.0 0.00 0.00 0.00 99 1017.3
20260904072828 73 325 0.0 0.0 0.00 0.00 0.00 99 1017.3
20260904072327 73 325 0.0 0.0 0.00 0.00 0.00 99 1017.3
20260904071823 73 325 0.0 0.0 0.00 0.00 0.00 99 1017.4
20260904071318 73 325 0.0 0.0 0.00 0.00 0.00 99 1017.3
20260904070813 73 325 0.0 0.0 0.00 0.00 0.00 99 1017.2
20260904070311 74 325 0.0 0.0 0.00 0.00 0.00 99 1017.3
20260904065812 74 325 0.0 0.0 0.00 0.00 0.00 99 1017.3
20260904065308 74 325 0.0 0.0 0.00 0.00 0.00 99 1017.3
20260904064803 74 325 0.0 0.0 0.00 0.00 0.00 99 1017.6
20260904064259 74 325 0.0 0.0 0.00 0.00 0.00 99 1017.5
20260904063755 74 325 0.0 0.0 0.00 0.00 0.00 99 1017.4
20260904063251 74 325 0.0 0.0 0.00 0.00 0.00 99 1017.5
20260904062746 74 325 0.0 0.0 0.00 0.00 0.00 99 1017.3
20260904062242 74 325 0.0 0.0 0.00 0.00 0.00 99 1017.4
20260904061737 74 325 0.0 0.0 0.00 0.00 0.00 99 1017.5
20260904061233 75 325 0.0 0.0 0.00 0.00 0.00 99 1017.3
20260904060730 75 325 0.0 0.0 0.00 0.00 0.00 99 1017.5
20260904060225 75 325 0.0 0.0 0.00 0.00 0.00 99 1017.7
20260904055720 75 330 0.0 0.0 0.00 0.00 0.00 99 1017.5
20260904055215 75 330 0.0 0.0 0.00 0.00 0.00 99 1017.4
20260904054711 75 325 0.0 0.0 0.00 0.00 0.00 99 1017.7
20260904054207 75 325 0.0 0.0 0.00 0.00 0.00 99 1017.7
20260904053702 75 325 0.0 0.0 0.00 0.00 0.00 99 1017.9
20260904053202 75 325 0.0 0.0 0.00 0.00 0.00 99 1017.8
20260904052658 75 325 0.0 0.0 0.00 0.00 0.00 99 1017.8
20260904052154 75 325 0.0 0.0 0.00 0.00 0.00 99 1018.1
20260904051650 75 325 0.0 0.0 0.00 0.00 0.00 99 1018.1
20260904051145 75 325 0.0 0.0 0.00 0.00 0.00 99 1018.2
20260904050640 75 325 0.0 0.0 0.00 0.00 0.00 99 1018.2
20260904050136 76 325 0.0 0.0 0.00 0.00 0.00 99 1018.2
20260904045636 76 325 0.0 0.0 0.00 0.00 0.00 99 1018.3
20260904045136 76 325 0.0 0.0 0.00 0.00 0.00 99 1018.4
20260904044632 76 325 0.0 0.0 0.00 0.00 0.00 99 1018.1
20260904044128 76 325 0.0 0.0 0.00 0.00 0.00 99 1018.1
20260904043625 76 325 0.0 0.0 0.00 0.00 0.00 99 1017.9
20260904043120 76 325 0.0 0.0 0.00 0.00 0.00 99 1017.8
20260904042616 76 334 0.0 0.0 0.00 0.00 0.00 99 1018.1
20260904042111 76 334 0.0 0.0 0.00 0.00 0.00 99 1018.1
20260904041606 76 334 0.0 0.0 0.00 0.00 0.00 99 1018.1
20260904041103 76 334 0.0 0.9 0.00 0.00 0.00 99 1018.2
20260904040603 77 334 0.0 0.0 0.00 0.00 0.00 99 1017.9
20260904040100 77 334 0.0 0.0 0.00 0.00 0.00 99 1018.1
20260904035554 77 345 0.0 0.0 0.00 0.00 0.00 99 1018.1
20260904035049 77 328 0.0 0.0 0.00 0.00 0.00 99 1018.1
20260904034543 77 2 0.0 0.9 0.00 0.00 0.00 99 1017.9
20260904034039 77 329 0.0 0.0 0.00 0.00 0.00 99 1017.8
20260904033535 77 329 0.0 0.0 0.00 0.00 0.00 99 1017.6
20260904033032 77 333 0.0 0.0 0.00 0.00 0.00 99 1017.7
20260904032528 77 333 0.0 0.0 0.00 0.00 0.00 99 1017.7
20260904032026 77 333 0.0 0.0 0.00 0.00 0.00 99 1017.4
20260904031521 77 333 0.0 0.0 0.00 0.00 0.00 99 1017.4
20260904031017 77 336 0.0 0.9 0.00 0.00 0.00 99 1017.6
20260904030512 77 314 0.0 0.0 0.00 0.00 0.00 99 1017.5
20260904030007 77 287 0.0 0.9 0.00 0.00 0.00 99 1017.7
20260904025458 78 324 0.0 0.0 0.00 0.00 0.00 99 1017.3
20260904024958 78 324 0.0 0.0 0.00 0.00 0.00 99 1017.5
20260904024453 78 324 0.0 0.0 0.00 0.00 0.00 99 1017.4
20260904023949 78 324 0.0 0.0 0.00 0.00 0.00 99 1017.6
20260904023445 78 324 0.0 0.0 0.00 0.00 0.00 99 1017.2
20260904022944 78 324 0.0 0.0 0.00 0.00 0.00 99 1017.5
20260904022441 78 324 0.0 0.0 0.00 0.00 0.00 99 1017.3
20260904021937 78 324 0.0 0.0 0.00 0.00 0.00 99 1017.3
20260904021432 78 324 0.0 0.0 0.00 0.00 0.00 99 1017.5
20260904020927 78 324 0.0 0.0 0.00 0.00 0.00 99 1017.5
20260904020422 78 324 0.0 0.0 0.00 0.00 0.00 99 1017.4
20260904015921 79 324 0.0 0.0 0.00 0.00 0.00 99 1017.4
20260904015417 79 324 0.0 0.0 0.00 0.00 0.00 99 1017.5
20260904014915 79 324 0.0 0.0 0.00 0.00 0.00 99 1017.6
20260904014410 79 324 0.0 0.0 0.00 0.00 0.00 99 1017.6
20260904013906 79 324 0.0 0.0 0.00 0.00 0.00 99 1017.3
20260904013402 79 324 0.0 0.0 0.00 0.00 0.00 99 1017.6
20260904012857 79 324 0.0 0.0 0.00 0.00 0.00 99 1017.6
20260904012352 79 324 0.0 0.0 0.00 0.00 0.00 99 1017.3
20260904011851 79 324 0.0 0.0 0.00 0.00 0.00 99 1017.3
20260904011346 79 324 0.0 0.0 0.00 0.00 0.00 99 1017.1
20260904010841 80 324 0.0 0.0 0.00 0.00 0.00 99 1017.3
20260904010338 80 324 0.0 0.0 0.00 0.00 0.00 99 1016.8
20260904005833 80 324 0.0 0.0 0.00 0.00 0.00 98 1017.2
20260904005328 80 324 0.0 0.0 0.00 0.00 0.00 98 1017.2
20260904004823 80 324 0.0 0.0 0.00 0.00 0.00 98 1017.1
20260904004320 80 324 0.0 0.0 0.00 0.00 0.00 98 1017.0
20260904003814 80 324 0.0 0.0 0.00 0.00 0.00 98 1017.1
20260904003310 80 324 0.0 0.0 0.00 0.00 0.00 97 1017.2
20260904002806 81 324 0.0 0.0 0.00 0.00 0.00 97 1017.2
20260904002306 81 324 0.0 0.0 0.00 0.00 0.00 97 1017.0
20260904001801 81 324 0.0 0.0 0.00 0.00 0.00 97 1017.2
20260904001256 81 324 0.0 0.0 0.00 0.00 0.00 97 1017.1
20260904000751 81 324 0.0 0.0 0.00 0.00 0.00 96 1017.1
20260904000250 81 324 0.0 0.0 0.00 0.00 0.00 96 1016.7
20260903235750 82 324 0.0 0.0 0.00 0.00 0.00 96 1016.8
20260903235247 82 324 0.0 0.0 0.00 0.00 0.00 96 1016.7
20260903234746 82 324 0.0 0.0 0.00 0.00 0.00 95 1016.6
20260903234243 82 324 0.0 0.0 0.00 0.00 0.00 95 1016.7
20260903233738 82 324 0.0 0.0 0.00 0.00 0.00 94 1016.8
20260903233234 82 324 0.0 0.0 0.00 0.00 0.00 94 1016.8
20260903232732 82 324 0.0 0.0 0.00 0.00 0.00 94 1016.6
20260903232229 82 322 0.0 0.0 0.00 0.00 0.00 94 1016.5
20260903231728 83 322 0.0 0.0 0.00 0.00 0.00 93 1016.3
20260903231223 83 321 0.0 0.0 0.00 0.00 0.00 92 1016.5
20260903230720 83 321 0.0 0.0 0.00 0.00 0.00 92 1016.4
20260903230219 83 321 0.0 0.0 0.00 0.00 0.00 92 1016.6
20260903225716 84 321 0.0 0.0 0.00 0.00 0.00 91 1016.8
20260903225212 84 321 0.0 0.0 0.00 0.00 0.00 90 1016.5
20260903224708 84 321 0.0 0.0 0.00 0.00 0.00 90 1016.4
20260903224204 84 322 0.0 0.0 0.00 0.00 0.00 90 1016.4
20260903223659 85 321 0.0 0.0 0.00 0.00 0.00 89 1016.5
20260903223158 85 321 0.0 0.0 0.00 0.00 0.00 89 1016.4
20260903222657 85 322 0.0 0.0 0.00 0.00 0.00 88 1016.7
20260903222156 85 321 0.0 0.0 0.00 0.00 0.00 88 1016.4
20260903221651 86 322 0.0 0.0 0.00 0.00 0.00 87 1016.4
20260903221149 86 322 0.0 0.0 0.00 0.00 0.00 85 1016.3
20260903220648 87 322 0.0 0.0 0.00 0.00 0.00 85 1016.2
20260903220143 87 322 0.0 0.0 0.00 0.00 0.00 84 1016.0
20260903215642 87 320 0.0 0.0 0.00 0.00 0.00 84 1015.9
20260903215138 87 320 0.0 0.0 0.00 0.00 0.00 84 1015.8
20260903214636 88 313 0.0 0.0 0.00 0.00 0.00 82 1015.8
20260903214132 88 311 0.0 0.0 0.00 0.00 0.00 80 1015.7
20260903213627 90 334 0.0 0.9 0.00 0.00 0.00 77 1015.7
20260903213123 91 334 0.9 0.9 0.00 0.00 0.00 76 1015.7
20260903212619 92 330 0.0 0.0 0.00 0.00 0.00 72 1015.8
20260903212114 92 339 0.0 0.0 0.00 0.00 0.00 67 1015.7
20260903211609 92 21 0.9 1.7 0.00 0.00 0.00 62 1015.7
20260903211105 92 264 0.0 0.0 0.00 0.00 0.00 70 1015.7
20260903210601 92 325 0.0 0.9 0.00 0.00 0.00 67 1015.7
20260903210056 91 275 0.0 0.9 0.00 0.00 0.00 69 1015.7
20260903205555 91 297 0.0 0.0 0.00 0.00 0.00 68 1015.9
20260903205049 91 305 0.0 0.0 0.00 0.00 0.00 72 1016.2
20260903204546 91 318 0.0 0.0 0.00 0.00 0.00 72 1016.1
20260903204041 91 327 0.0 0.0 0.00 0.00 0.00 70 1016.2
20260903203537 92 326 0.0 0.9 0.00 0.00 0.00 68 1016.3
20260903203036 92 316 0.0 0.9 0.00 0.00 0.00 62 1016.4
20260903202532 92 345 0.0 0.9 0.00 0.00 0.00 67 1016.5
20260903202027 92 310 0.0 0.0 0.00 0.00 0.00 67 1016.3
20260903201522 92 2 0.0 1.7 0.00 0.00 0.00 66 1016.6
20260903201021 92 300 0.0 0.9 0.00 0.00 0.00 67 1016.5
20260903200515 92 348 0.0 1.7 0.00 0.00 0.00 62 1016.6
20260903200010 92 348 0.0 0.9 0.00 0.00 0.00 64 1016.6
20260903195507 92 86 0.9 0.9 0.00 0.00 0.00 66 1016.8
20260903195001 92 322 0.0 0.0 0.00 0.00 0.00 68 1016.8
20260903194451 92 347 0.9 1.7 0.00 0.00 0.00 60 1016.8
20260903193946 93 338 0.0 0.9 0.00 0.00 0.00 63 1016.6
20260903193442 93 92 0.9 1.7 0.00 0.00 0.00 59 1016.8
20260903192937 93 312 0.0 2.6 0.00 0.00 0.00 59 1017.1
20260903192435 93 343 0.0 1.7 0.00 0.00 0.00 59 1017.1
20260903191935 93 315 0.9 1.7 0.00 0.00 0.00 57 1017.3
20260903191431 93 283 0.9 0.9 0.00 0.00 0.00 64 1017.4
20260903190930 92 188 0.9 2.6 0.00 0.00 0.00 65 1017.7
20260903190425 91 170 1.7 2.6 0.00 0.00 0.00 62 1017.8
20260903185924 90 1 0.0 0.9 0.00 0.00 0.00 68 1017.9
20260903185420 90 344 0.0 0.0 0.00 0.00 0.00 68 1017.7
20260903184915 91 342 0.0 0.9 0.00 0.00 0.00 67 1017.7
20260903184412 92 340 0.0 0.9 0.00 0.00 0.00 67 1017.8
20260903183907 92 357 0.0 0.0 0.00 0.00 0.00 62 1017.8
20260903183401 94 354 0.0 1.7 0.00 0.00 0.00 56 1017.8
20260903182900 94 111 1.7 2.6 0.00 0.00 0.00 56 1017.8
20260903182359 94 77 0.9 1.7 0.00 0.00 0.00 57 1017.9
20260903181854 95 228 3.5 6.1 0.00 0.00 0.00 57 1017.9
20260903181350 95 345 0.0 0.9 0.00 0.00 0.00 63 1018.1
20260903180849 95 305 0.0 0.9 0.00 0.00 0.00 58 1018.2
20260903180344 95 328 0.0 0.9 0.00 0.00 0.00 62 1018.1
20260903175843 95 167 1.7 1.7 0.00 0.00 0.00 58 1018.2
20260903175342 95 20 0.9 1.7 0.00 0.00 0.00 57 1018.1
20260903174838 96 348 0.9 0.9 0.00 0.00 0.00 57 1018.2
20260903174333 95 308 0.0 1.7 0.00 0.00 0.00 60 1018.4
20260903173832 95 61 0.9 1.7 0.00 0.00 0.00 56 1018.4
20260903173327 96 334 0.0 0.9 0.00 0.00 0.00 58 1018.4
20260903172823 96 293 0.9 0.9 0.00 0.00 0.00 60 1018.4
20260903172318 96 329 0.0 0.9 0.00 0.00 0.00 60 1018.4
20260903171814 95 154 1.7 2.6 0.00 0.00 0.00 57 1018.4
20260903171309 96 158 1.7 1.7 0.00 0.00 0.00 58 1018.3
20260903170808 96 301 0.0 0.0 0.00 0.00 0.00 58 1018.5
20260903170303 96 296 0.0 1.7 0.00 0.00 0.00 55 1018.5
20260903165801 95 338 0.0 0.9 0.00 0.00 0.00 62 1018.7
20260903165256 95 339 1.7 1.7 0.00 0.00 0.00 63 1018.7
20260903164750 96 354 0.9 0.9 0.00 0.00 0.00 61 1018.5
20260903164247 95 341 0.0 0.9 0.00 0.00 0.00 59 1018.8
20260903163745 94 317 0.0 0.9 0.00 0.00 0.00 64 1018.7
20260903163242 95 306 0.9 0.9 0.00 0.00 0.00 62 1018.9
20260903162738 94 302 0.0 0.9 0.00 0.00 0.00 61 1018.8
20260903162234 94 330 0.0 1.7 0.00 0.00 0.00 62 1018.9
20260903161730 94 356 1.7 1.7 0.00 0.00 0.00 61 1018.9
20260903161225 93 297 0.0 1.7 0.00 0.00 0.00 63 1018.8
20260903160721 95 124 0.9 0.9 0.00 0.00 0.00 63 1018.9
20260903160220 93 322 0.0 0.0 0.00 0.00 0.00 64 1018.9
20260903155719 92 298 0.0 0.0 0.00 0.00 0.00 67 1019.0
20260903155214 92 337 0.0 0.9 0.00 0.00 0.00 65 1019.0
20260903154709 92 280 0.0 0.9 0.00 0.00 0.00 70 1019.1
20260903154205 90 248 1.7 1.7 0.00 0.00 0.00 67 1019.3
20260903153700 89 306 0.0 0.9 0.00 0.00 0.00 74 1019.3
20260903153156 89 346 0.0 0.0 0.00 0.00 0.00 71 1019.1
20260903152652 89 347 0.0 0.9 0.00 0.00 0.00 73 1019.1
20260903152148 89 333 1.7 2.6 0.00 0.00 0.00 69 1019.2
20260903151648 88 300 0.0 0.9 0.00 0.00 0.00 75 1019.4
20260903151143 87 327 0.0 0.0 0.00 0.00 0.00 77 1019.0
20260903150643 86 265 0.9 1.7 0.00 0.00 0.00 75 1019.2
20260903150138 87 347 0.0 0.0 0.00 0.00 0.00 79 1019.4
20260903145637 86 162 2.6 3.5 0.00 0.00 0.00 76 1019.4
20260903145132 85 11 0.9 0.9 0.00 0.00 0.00 79 1019.2
20260903144631 85 351 0.0 0.9 0.00 0.00 0.00 80 1019.2
20260903144128 84 7 0.0 0.9 0.00 0.00 0.00 77 1019.1
20260903143623 84 70 0.9 0.9 0.00 0.00 0.00 86 1019.3
20260903143119 83 340 0.0 0.0 0.00 0.00 0.00 86 1019.1
20260903142615 82 356 1.7 1.7 0.00 0.00 0.00 87 1019.2
20260903142111 82 154 0.0 0.9 0.00 0.00 0.00 89 1019.3
20260903141606 82 154 0.0 0.9 0.00 0.00 0.00 89 1019.2
20260903141102 81 154 0.0 0.0 0.00 0.00 0.00 90 1019.1
20260903140557 80 154 0.0 0.9 0.00 0.00 0.00 92 1019.2
20260903140052 80 334 0.0 0.0 0.00 0.00 0.00 93 1019.2
20260903135548 79 346 0.0 0.0 0.00 0.00 0.00 95 1019.4
20260903135048 78 347 0.0 0.0 0.00 0.00 0.00 95 1019.4
20260903134543 78 359 0.0 0.0 0.00 0.00 0.00 97 1019.3
20260903134038 77 334 0.0 0.0 0.00 0.00 0.00 99 1019.4
20260903133535 77 321 0.0 0.0 0.00 0.00 0.00 99 1019.4
20260903133031 76 321 0.0 0.0 0.00 0.00 0.00 99 1019.6
20260903132526 76 321 0.0 0.0 0.00 0.00 0.00 99 1019.5
20260903132021 75 320 0.0 0.0 0.00 0.00 0.00 99 1019.4
20260903131516 75 320 0.0 0.0 0.00 0.00 0.00 99 1019.5
20260903131015 75 320 0.0 0.0 0.00 0.00 0.00 99 1019.8
20260903130510 74 320 0.0 0.0 0.00 0.00 0.00 99 1019.8
20260903130009 74 320 0.0 0.0 0.00 0.00 0.00 99 1019.7
20260903125508 74 320 0.0 0.0 0.00 0.00 0.00 99 1019.8
20260903125003 73 320 0.0 0.0 0.00 0.00 0.00 99 1019.8
20260903124458 73 320 0.0 0.0 0.00 0.00 0.00 99 1019.8
20260903123956 73 320 0.0 0.0 0.00 0.00 0.00 99 1019.8
20260903123451 73 320 0.0 0.0 0.00 0.00 0.00 99 1019.7
20260903122950 72 320 0.0 0.0 0.00 0.00 0.00 99 1019.6
20260903122450 72 320 0.0 0.0 0.00 0.00 0.00 99 1019.6
20260903121944 72 320 0.0 0.0 0.00 0.00 0.00 99 1019.6
20260903121444 72 320 0.0 0.0 0.00 0.00 0.00 99 1019.6
20260903120940 71 320 0.0 0.0 0.00 0.00 0.00 99 1019.7
20260903120439 71 320 0.0 0.0 0.00 0.00 0.00 99 1019.7
20260903115938 71 320 0.0 0.0 0.00 0.00 0.00 99 1019.7
20260903115437 71 320 0.0 0.0 0.00 0.00 0.00 99 1019.7
20260903114932 71 320 0.0 0.0 0.00 0.00 0.00 99 1019.9
20260903114427 71 320 0.0 0.0 0.00 0.00 0.00 99 1019.7
20260903113923 71 320 0.0 0.0 0.00 0.00 0.00 99 1019.8
20260903113419 71 320 0.0 0.0 0.00 0.00 0.00 99 1019.4
20260903112914 71 320 0.0 0.0 0.00 0.00 0.00 99 1019.6
20260903112410 71 320 0.0 0.0 0.00 0.00 0.00 99 1019.6
20260903111909 71 320 0.0 0.0 0.00 0.00 0.00 99 1019.6
20260903111408 71 320 0.0 0.0 0.00 0.00 0.00 99 1019.6
20260903110905 71 320 0.0 0.0 0.00 0.00 0.00 99 1019.3
20260903110400 71 320 0.0 0.0 0.00 0.00 0.00 99 1019.2
20260903105855 71 320 0.0 0.0 0.00 0.00 0.00 99 1019.2
20260903105351 71 320 0.0 0.0 0.00 0.00 0.00 99 1019.3
20260903104850 71 320 0.0 0.0 0.00 0.00 0.00 99 1019.1
20260903104345 71 320 0.0 0.0 0.00 0.00 0.00 99 1019.0
20260903103842 71 320 0.0 0.0 0.00 0.00 0.00 99 1019.0
20260903103337 71 320 0.0 0.0 0.00 0.00 0.00 99 1018.8
20260903102827 71 320 0.0 0.0 0.00 0.00 0.00 99 1018.8
20260903102321 71 320 0.0 0.0 0.00 0.00 0.00 99 1018.9
20260903101820 71 320 0.0 0.0 0.00 0.00 0.00 99 1018.8
20260903101315 71 320 0.0 0.0 0.00 0.00 0.00 99 1018.8
20260903100811 71 320 0.0 0.0 0.00 0.00 0.00 99 1018.9
20260903100305 71 320 0.0 0.0 0.00 0.00 0.00 99 1018.6
20260903095803 71 320 0.0 0.0 0.00 0.00 0.00 99 1018.6
20260903095257 71 320 0.0 0.0 0.00 0.00 0.00 99 1018.7
20260903094752 71 320 0.0 0.0 0.00 0.00 0.00 99 1018.7
20260903094247 71 320 0.0 0.0 0.00 0.00 0.00 99 1018.4
20260903093742 71 320 0.0 0.0 0.00 0.00 0.00 99 1018.6
20260903093238 71 320 0.0 0.0 0.00 0.00 0.00 99 1018.6
20260903092737 71 320 0.0 0.0 0.00 0.00 0.00 99 1018.6
20260903092233 71 320 0.0 0.0 0.00 0.00 0.00 99 1018.5
20260903091731 71 320 0.0 0.0 0.00 0.00 0.00 99 1018.9
20260903091226 71 320 0.0 0.0 0.00 0.00 0.00 99 1018.7
20260903090721 71 320 0.0 0.0 0.00 0.00 0.00 99 1018.7
20260903090220 71 320 0.0 0.0 0.00 0.00 0.00 99 1018.6
20260903085719 71 320 0.0 0.0 0.00 0.00 0.00 99 1018.5
20260903085214 71 320 0.0 0.0 0.00 0.00 0.00 99 1018.6
20260903084712 71 320 0.0 0.0 0.00 0.00 0.00 99 1018.8
20260903084208 71 320 0.0 0.0 0.00 0.00 0.00 99 1018.8
20260903083703 71 320 0.0 0.0 0.00 0.00 0.00 99 1018.9
20260903083203 72 320 0.0 0.0 0.00 0.00 0.00 99 1018.6
20260903082657 72 320 0.0 0.0 0.00 0.00 0.00 99 1018.5
20260903082153 72 320 0.0 0.0 0.00 0.00 0.00 99 1018.6
20260903081647 72 320 0.0 0.0 0.00 0.00 0.00 99 1018.6
20260903081143 72 320 0.0 0.0 0.00 0.00 0.00 99 1018.7
20260903080639 72 320 0.0 0.0 0.00 0.00 0.00 99 1018.7
20260903080138 72 320 0.0 0.0 0.00 0.00 0.00 99 1018.7
20260903075636 72 320 0.0 0.0 0.00 0.00 0.00 99 1018.7
20260903075136 72 320 0.0 0.0 0.00 0.00 0.00 99 1018.5
20260903074636 72 320 0.0 0.0 0.00 0.00 0.00 99 1018.6